Location: Alfortville
(48.8058°N, 2.4204°E)
Time: 12:56:02
(UTC+00:00)

CZ-2D R/B - Pass Details

Date: 24 October 2021
Orbit: 519 x 537 km, 97.4° (Epoch: 06 December)

Event Time Altitude Azimuth Distance (km) Brightness Sun altitude
Rises 17:16:17 0° 155° (SSE) 2,667 6.7 -6.1°
Reaches altitude 10° 17:18:23 10° 151° (SSE) 1,784 5.8 -6.4°
Maximum altitude 17:22:10 57° 73° (ENE) 637 3.3 -7.0°
Drops below altitude 10° 17:26:00 10° 355° (N) 1,806 5.9 -7.6°
Sets 17:28:09 0° 351° (N) 2,704 6.9 -8.0°
